EW2725 Weather Reports


time (UTC)temp
C
wind
direction
speed
KPH
gust
KPH
rain 1hr
cm
rain 24hr
cm
rain mn
cm
humidity
%
barometer
mb
20260507210505 16 0 0.0 0.0 0.00 1.19 0.79 59 1004.7
20260507210114 16 215 3.2 0.0 0.00 0.00 1.24 59 1100.1
20260507210005 16 0 0.0 0.0 0.00 1.19 0.79 56 1004.6
20260507205505 16 0 0.0 0.0 0.00 1.19 0.79 56 1004.6
20260507205006 17 0 0.0 0.0 0.00 1.19 0.79 57 1004.5
20260507204613 16 177 6.4 0.0 0.00 0.00 1.24 59 1100.1
20260507204505 17 0 0.0 0.0 0.00 1.19 0.79 57 1004.6
20260507203106 15 175 6.4 0.0 0.00 0.00 1.24 62 1100.1
20260507202505 17 0 0.0 0.0 0.00 1.19 0.79 60 1004.7
20260507201601 15 121 6.4 0.0 0.00 0.00 1.24 60 1100.1
20260507201505 17 0 0.0 0.0 0.00 1.19 0.79 59 1004.5
20260507200106 15 221 6.4 0.0 0.00 0.00 1.24 63 1100.1
20260507200005 17 0 0.0 0.0 0.00 1.19 0.79 62 1004.6
20260507195505 17 0 0.0 0.0 0.00 1.19 0.79 63 1004.7
20260507194518 15 204 8.0 0.0 0.00 0.00 1.24 65 1100.1
20260507193505 16 0 0.0 0.0 0.00 1.19 0.79 67 1005.2
20260507193114 15 158 11.3 0.0 0.00 0.00 1.24 68 1100.1
20260507191612 15 171 8.0 0.0 0.00 0.00 1.24 70 1100.1
20260507190116 14 171 9.7 0.0 0.00 0.00 1.24 71 1100.1
20260507184622 14 190 11.3 0.0 0.00 0.00 1.24 70 1100.1
20260507184006 17 0 0.0 0.0 0.00 1.19 0.79 67 1006.0
20260507183505 17 0 0.0 0.0 0.00 1.19 0.79 68 1006.1
20260507183117 15 221 8.0 0.0 0.00 0.00 1.24 68 1100.1
20260507183006 17 0 0.0 0.0 0.00 1.19 0.79 66 1006.1
20260507182505 17 0 0.0 0.0 0.00 1.19 0.79 68 1006.2
20260507181615 14 155 9.7 0.0 0.00 0.00 1.24 68 1100.1
20260507181505 16 0 0.0 0.0 0.00 1.19 0.79 67 1006.2
20260507181005 16 0 0.0 0.0 0.00 1.19 0.79 68 1006.3
20260507180505 16 0 0.0 0.0 0.00 1.19 0.79 67 1006.3
20260507180123 15 186 6.4 0.0 0.00 0.00 1.24 70 1100.1
20260507175506 16 0 0.0 0.0 0.00 1.19 0.79 67 1006.3
20260507175005 16 0 0.0 0.0 0.00 1.19 0.79 68 1006.4
20260507174612 15 216 8.0 0.0 0.00 0.00 1.24 67 1100.1
20260507174505 16 0 0.0 0.0 0.00 1.19 0.79 68 1006.4
20260507173024 15 216 4.8 0.0 0.00 0.00 1.24 69 1100.1
20260507173006 16 0 0.0 0.0 0.00 1.19 0.79 69 1006.5
20260507171634 14 216 6.4 0.0 0.00 0.00 1.24 67 1100.1
20260507171505 16 0 0.0 0.0 0.00 1.19 0.79 66 1006.7
20260507171006 15 0 0.0 0.0 0.00 1.19 0.79 66 1006.7
20260507170505 16 0 0.0 0.0 0.00 1.19 0.79 63 1006.8
20260507170136 15 269 4.8 0.0 0.00 0.00 1.24 59 1100.1
20260507170005 16 0 0.0 0.0 0.00 1.19 0.79 59 1006.8
20260507165006 16 0 0.0 0.0 0.00 1.19 0.79 60 1006.9
20260507164629 15 269 3.2 0.0 0.00 0.00 1.24 60 1100.1
20260507164005 16 0 0.0 0.0 0.00 1.19 0.79 61 1006.8
20260507163506 16 0 0.0 0.0 0.00 1.19 0.79 67 1006.8
20260507163132 14 304 6.4 0.0 0.00 0.00 1.24 62 1100.1
20260507163006 15 0 0.0 0.0 0.00 1.19 0.79 65 1007.0
20260507162006 16 0 0.0 0.0 0.00 1.19 0.79 61 1007.0
20260507161626 14 5 6.4 0.0 0.00 0.00 1.24 64 1100.1
20260507160119 14 338 6.4 0.0 0.00 0.00 1.24 64 1100.1
20260507154616 13 5 6.4 0.0 0.00 0.00 1.24 66 1100.1
20260507154505 15 0 0.0 0.0 0.00 1.19 0.79 68 1007.5
20260507154006 15 0 0.0 0.0 0.00 1.19 0.79 64 1007.6
20260507153505 16 0 0.0 0.0 0.00 1.19 0.79 66 1007.8
20260507153110 13 333 8.0 0.0 0.00 0.00 1.24 67 1100.1
20260507153006 16 0 0.0 0.0 0.00 1.19 0.79 69 1007.8
20260507151614 13 320 9.7 0.0 0.00 0.00 1.24 68 1100.1
20260507151006 14 0 0.0 0.0 0.00 1.19 0.79 73 1007.8
20260507150114 12 324 8.0 0.0 0.00 0.00 1.24 70 1100.1
20260507150006 13 0 0.0 0.0 0.00 1.19 0.79 76 1007.8
20260507144515 12 295 6.4 0.0 0.00 0.00 1.24 75 1100.1
20260507144006 12 0 0.0 0.0 0.00 1.19 0.79 81 1007.9
20260507143506 12 0 0.0 0.0 0.00 1.19 0.79 83 1007.7
20260507143013 12 283 4.8 0.0 0.00 0.00 1.24 77 1100.1
20260507142505 11 0 0.0 0.0 0.00 1.19 0.79 87 1008.0
20260507141620 11 360 4.8 0.0 0.00 0.00 1.24 80 1100.1
20260507141505 11 0 0.0 0.0 0.00 1.19 0.79 91 1008.0
20260507140505 10 0 0.0 0.0 0.00 1.19 0.79 94 1008.1
20260507140130 11 276 8.0 0.0 0.00 0.00 1.24 82 1100.1
20260507140005 10 0 0.0 0.0 0.00 1.19 0.79 95 1008.2
20260507135505 10 0 0.0 0.0 0.00 1.19 0.79 95 1008.1
20260507134520 10 288 6.4 0.0 0.00 0.00 1.24 84 1100.1
20260507133505 9 0 0.0 0.0 0.00 1.19 0.79 96 1008.2
20260507133116 10 286 3.2 0.0 0.00 0.00 1.24 86 1100.1
20260507133005 9 0 0.0 0.0 0.00 1.19 0.79 95 1008.3
20260507132505 9 0 0.0 0.0 0.03 1.19 0.79 95 1008.1
20260507132005 9 0 0.0 0.0 0.03 1.19 0.79 96 1007.9
20260507131623 9 360 3.2 0.0 0.00 0.00 1.24 86 1100.1
20260507131505 9 0 0.0 0.0 0.03 1.19 0.79 96 1008.1
20260507130505 9 0 0.0 0.0 0.03 1.19 0.79 96 1008.0
20260507130111 9 315 3.2 0.0 0.00 0.00 1.24 88 1100.1
20260507130005 9 0 0.0 0.0 0.03 1.19 0.79 96 1007.9
20260507125505 9 0 0.0 0.0 0.03 1.19 0.79 96 1008.0
20260507125006 8 0 0.0 0.0 0.03 1.19 0.79 95 1008.3
20260507124636 9 315 1.6 0.0 0.00 0.00 1.24 89 1100.1
20260507124505 8 0 0.0 0.0 0.03 1.19 0.79 95 1008.0
20260507124006 8 0 0.0 0.0 0.05 1.19 0.79 96 1008.2
20260507123128 8 310 3.2 0.0 0.00 0.00 1.22 90 1100.1
20260507122005 8 0 0.0 0.0 0.05 1.17 0.76 95 1008.3
20260507121624 8 310 1.6 0.0 0.00 0.00 1.19 90 1100.1
20260507121005 8 358 0.0 0.0 0.05 1.17 0.76 95 1008.1
20260507120122 8 310 1.6 0.0 0.00 0.00 1.17 90 1100.1
20260507120006 8 359 0.0 0.0 0.08 1.17 0.76 95 1008.1
20260507115006 8 358 0.0 0.0 0.08 1.17 0.76 95 1008.1
20260507114612 8 32 3.2 0.0 0.00 0.00 1.17 90 1100.1
20260507114006 8 0 0.0 0.0 0.08 1.14 0.74 95 1008.1
20260507113002 8 283 3.2 0.0 0.00 0.00 1.12 90 1100.1
20260507112505 8 0 0.0 0.0 0.05 1.12 0.71 95 1008.3
20260507112006 9 0 0.0 0.0 0.05 1.12 0.71 95 1008.2
20260507111559 9 294 4.8 0.0 0.00 0.00 1.07 90 1100.1
20260507111005 9 0 0.0 0.0 0.08 1.12 0.71 95 1007.4
20260507110008 9 328 6.4 0.0 0.00 0.00 1.07 90 1100.1
20260507110005 9 0 0.0 0.0 0.08 1.09 0.69 95 1007.4
20260507104559 9 312 6.4 0.0 0.00 0.00 1.04 91 1100.1
20260507104506 9 0 0.0 0.0 0.05 1.07 0.66 95 1007.4
20260507104005 9 0 0.0 0.0 0.05 1.07 0.66 95 1007.5
20260507103505 9 0 0.0 0.0 0.05 1.07 0.66 95 1007.4
20260507103112 9 273 4.8 0.0 0.00 0.00 0.99 91 1100.1
20260507103006 9 0 0.0 0.0 0.08 1.07 0.66 95 1007.4
20260507102505 9 0 0.0 0.0 0.10 1.07 0.66 95 1007.0
20260507101604 9 312 6.4 0.0 0.00 0.00 0.97 91 1100.1
20260507101506 9 0 0.0 0.0 0.08 1.04 0.64 95 1007.2
20260507100141 9 313 6.4 0.0 0.00 0.00 0.94 91 1100.1
20260507100005 9 0 0.0 0.0 0.10 1.02 0.61 95 1007.2
20260507095505 10 0 0.0 0.0 0.10 1.02 0.61 95 1007.2
20260507095006 10 0 0.0 0.0 0.10 1.02 0.61 95 1006.8
20260507094616 10 340 6.4 0.0 0.00 0.00 0.91 91 1100.1
20260507093114 10 246 6.4 0.0 0.00 0.00 0.89 91 1100.1
20260507092505 11 358 0.0 0.0 0.20 0.97 0.56 95 1007.1
20260507092006 11 0 0.0 0.0 0.36 0.97 0.56 95 1006.9
20260507091503 11 246 8.0 0.0 0.00 0.00 0.84 92 1100.1
20260507091006 11 0 0.0 0.0 0.53 0.94 0.53 95 1006.4
20260507090139 11 246 3.2 0.0 0.00 0.00 0.79 92 1100.1
20260507085506 11 0 0.0 0.0 0.51 0.91 0.51 95 1006.8
20260507084629 11 246 8.0 0.0 0.00 0.00 0.71 92 1100.1
20260507084505 12 0 0.0 0.0 0.48 0.89 0.48 95 1006.3
20260507083132 12 246 3.2 0.0 0.00 0.00 0.58 92 1100.1
20260507082005 11 359 0.0 0.0 0.20 0.61 0.20 95 1006.9
20260507081502 11 223 1.6 0.0 0.00 0.00 0.10 92 1100.1
20260507080014 11 223 1.6 0.0 0.00 0.00 0.00 92 1100.1
20260507080005 11 359 0.0 0.0 0.00 0.41 0.00 95 1005.8
20260507074523 11 223 1.6 0.0 0.00 0.00 0.00 92 1100.1
20260507074505 11 358 0.0 0.0 0.00 0.41 0.00 95 1005.7
20260507073014 11 223 1.6 0.0 0.00 0.00 0.00 92 1100.1
20260507073005 12 359 0.0 0.0 0.00 0.41 0.00 95 1005.9
20260507071620 11 223 3.2 0.0 0.00 0.00 0.00 92 1100.1
20260507070108 12 223 1.6 0.0 0.00 0.00 0.00 92 1100.1
20260507070010 12 0 0.0 0.0 0.00 0.41 0.00 95 1006.0
20260507065505 12 0 0.0 0.0 0.00 0.41 0.00 95 1006.0
20260507065005 12 0 0.0 0.0 0.00 0.41 0.00 95 1006.0
20260507064559 12 223 0.0 0.0 0.00 0.00 0.00 92 1100.1
20260507064005 12 0 0.0 0.0 0.00 0.41 0.00 95 1005.8
20260507063136 11 223 1.6 0.0 0.00 0.00 0.00 92 1100.1
20260507063005 12 0 0.0 0.0 0.00 0.41 0.00 95 1005.9
20260507061624 11 223 1.6 0.0 0.00 0.00 0.00 91 1100.1
20260507061505 11 358 0.0 0.0 0.00 0.41 0.00 95 1006.4
20260507061006 11 0 0.0 0.0 0.00 0.41 0.00 95 1006.2
20260507060505 11 358 0.0 0.0 0.00 0.41 0.00 95 1006.4
20260507060014 11 223 1.6 0.0 0.00 0.00 0.00 91 1100.1
20260507060005 11 0 0.0 0.0 0.00 0.41 0.00 95 1006.3
20260507055505 11 357 0.0 0.0 0.00 0.41 0.00 95 1006.4
20260507055006 11 0 0.0 0.0 0.00 0.41 0.00 95 1006.3
20260507054609 11 223 1.6 0.0 0.00 0.00 0.00 91 1100.1
20260507054505 11 0 0.0 0.0 0.00 0.41 0.00 95 1006.4
20260507054006 11 0 0.0 0.0 0.00 0.41 0.00 95 1006.6
20260507053505 11 358 0.0 0.0 0.00 0.41 0.00 95 1006.7
20260507053010 11 223 3.2 0.0 0.00 0.00 0.00 91 1100.1
20260507051600 12 223 3.2 0.0 0.00 0.00 0.00 91 1100.1
20260507051504 12 0 0.0 0.0 0.00 0.41 0.00 95 1006.9
20260507051005 12 358 0.0 0.0 0.00 0.41 0.00 95 1006.9
20260507050134 12 223 3.2 0.0 0.00 0.00 0.00 91 1100.1
20260507050006 12 0 0.0 0.0 0.00 0.41 0.00 95 1007.1
20260507044625 12 209 1.6 0.0 0.00 0.00 0.00 91 1100.1
20260507044505 12 359 0.0 0.0 0.00 0.41 0.00 95 1006.9
20260507044005 12 357 0.0 0.0 0.00 0.41 0.00 95 1006.9
20260507043505 12 357 0.0 0.0 0.00 0.41 0.00 95 1006.9
20260507043127 12 190 3.2 0.0 0.00 0.00 0.51 91 1100.1
20260507042005 12 359 0.0 0.0 0.00 0.41 0.00 95 1007.1
20260507041622 12 220 3.2 0.0 0.00 0.00 0.51 91 1100.1
20260507041505 12 359 0.0 0.0 0.00 0.41 0.00 95 1007.1
20260507041005 12 359 0.0 0.0 0.00 0.41 0.00 95 1007.0
20260507040120 12 200 3.2 0.0 0.00 0.00 0.51 91 1100.1
20260507035504 12 359 0.0 0.0 0.00 0.41 0.41 95 1007.2
20260507034648 12 227 3.2 0.0 0.00 0.00 0.51 91 1100.1
20260507034505 12 0 0.0 0.0 0.00 0.41 0.41 95 1007.4
20260507033103 12 227 4.8 0.0 0.00 0.00 0.51 91 1100.1
20260507032006 12 359 0.0 0.0 0.00 0.41 0.41 94 1007.3
20260507031606 12 222 6.4 0.0 0.00 0.00 0.51 91 1100.1
20260507031505 12 0 0.0 0.0 0.00 0.41 0.41 94 1007.3
20260507030505 12 357 0.0 0.0 0.00 0.41 0.41 94 1006.9
20260507030004 12 227 6.4 0.0 0.00 0.00 0.51 91 1100.1
20260507025005 12 358 0.0 0.0 0.00 0.41 0.41 94 1006.9
20260507024553 12 242 4.8 0.0 0.00 0.00 0.51 91 1100.1
20260507023143 12 242 4.8 0.0 0.00 0.00 0.51 91 1100.1
20260507023005 12 358 0.0 0.0 0.00 0.41 0.41 94 1007.3
20260507022504 12 358 0.0 0.0 0.00 0.41 0.41 94 1007.5
20260507021631 12 238 6.4 0.0 0.00 0.00 0.51 91 1100.1
20260507021504 12 358 0.0 0.0 0.00 0.41 0.41 94 1007.6
20260507020504 12 359 0.0 0.0 0.00 0.41 0.41 94 1007.7
20260507020056 12 234 6.4 0.0 0.00 0.00 0.51 91 1100.1
20260507014505 12 221 8.0 0.0 0.00 0.00 0.51 91 1100.1
20260507013505 13 358 0.0 0.0 0.05 0.41 0.41 94 1008.1
20260507013141 12 227 8.0 0.0 0.00 0.00 0.51 90 1100.1
20260507013005 13 358 0.0 0.0 0.05 0.41 0.41 94 1008.1
20260507012505 13 0 0.0 0.0 0.05 0.41 0.41 94 1008.2
20260507012005 13 358 0.0 0.0 0.08 0.41 0.41 94 1008.2
20260507011642 13 240 8.0 0.0 0.00 0.00 0.51 90 1100.1
20260507011504 13 357 0.0 0.0 0.10 0.41 0.41 94 1008.1
20260507011005 13 358 0.0 0.0 0.10 0.41 0.41 94 1008.2
20260507010138 13 225 9.7 0.0 0.00 0.00 0.51 90 1100.1
20260507005504 13 357 0.0 0.0 0.15 0.41 0.41 94 1008.1
20260507004512 13 236 8.0 0.0 0.00 0.00 0.48 90 1100.1
20260507004505 13 358 0.0 0.0 0.18 0.38 0.38 94 1008.1
20260507003505 13 358 0.0 0.0 0.20 0.36 0.36 94 1008.1
20260507003105 13 246 8.0 0.0 0.00 0.00 0.46 90 1100.1
20260507002504 13 359 0.0 0.0 0.25 0.36 0.36 93 1008.2
20260507001502 13 226 8.0 0.0 0.00 0.00 0.41 90 1100.1
20260507000140 13 166 8.0 0.0 0.00 0.00 0.36 90 1100.1
20260507000005 13 358 0.0 0.0 0.25 0.28 0.28 93 1008.1
20260506235504 13 357 0.0 0.0 0.23 0.25 0.25 93 1008.1
20260506235005 13 357 0.0 0.0 0.23 0.25 0.25 93 1008.1
20260506234637 13 240 8.0 0.0 0.00 0.00 0.30 90 1100.1
20260506234505 13 0 0.0 0.0 0.20 0.20 0.20 93 1008.1
20260506233128 13 236 8.0 0.0 0.00 0.00 0.15 89 1100.1
20260506231625 13 236 9.7 0.0 0.00 0.00 0.13 89 1100.1
20260506230505 13 0 0.0 0.0 0.05 0.05 0.05 91 1008.1
20260506230142 12 216 8.0 0.0 0.00 0.00 0.08 88 1100.1
20260506225007 13 0 0.0 0.0 0.03 0.03 0.03 90 1008.3
20260506224636 13 219 11.3 0.0 0.00 0.00 0.03 87 1100.1
20260506224005 13 358 0.0 0.0 0.00 0.00 0.00 90 1008.4
20260506223504 13 0 0.0 0.0 0.00 0.00 0.00 90 1008.5
20260506223134 13 246 9.7 0.0 0.00 0.00 0.03 86 1100.1
20260506222504 13 358 0.0 0.0 0.00 0.00 0.00 89 1008.6
20260506221631 13 250 9.7 0.0 0.00 0.00 0.00 85 1100.1
20260506221504 14 358 0.0 0.0 0.00 0.00 0.00 88 1008.6
20260506220124 14 234 9.7 0.0 0.00 0.00 0.00 83 1100.1
20260506220005 14 0 0.0 0.0 0.00 0.00 0.00 87 1008.5
20260506215505 14 0 0.0 0.0 0.00 0.00 0.00 87 1008.4
20260506214612 14 231 9.7 0.0 0.00 0.00 0.00 83 1100.1
20260506213505 14 0 0.0 0.0 0.00 0.00 0.00 87 1008.6
20260506213112 14 215 9.7 0.0 0.00 0.00 0.00 83 1100.1
20260506212005 14 0 0.0 0.0 0.00 0.00 0.00 87 1009.0
20260506211616 14 227 9.7 0.0 0.00 0.00 0.00 83 1100.1
20260506211505 14 0 0.0 0.0 0.00 0.00 0.00 87 1009.0